TimeEST,TemperatureF,Dew PointF,Humidity,Sea Level PressureIn,VisibilityMPH,Wind Direction,Wind SpeedMPH,Gust SpeedMPH,PrecipitationIn,Events,Conditions,WindDirDegrees,DateUTC
12:52 AM,64.9,50.0,58,30.12,10.0,SSW,18.4,34.5,N/A,,Overcast,210,2012-11-13 05:52:00
2:42 AM,50.0,42.8,76,30.18,7.0,WNW,8.1,21.9,0.02,Rain,Light Rain,290,2012-11-13 07:42:00
2:46 AM,48.2,44.6,87,30.18,1.8,Variable,5.8,21.9,0.09,Rain,Heavy Rain,0,2012-11-13 07:46:00
2:52 AM,48.0,44.1,86,30.19,1.2,Variable,5.8,17.3,0.14,Rain,Heavy Rain,0,2012-11-13 07:52:00
2:57 AM,48.2,44.6,87,30.18,2.0,NNW,10.4,19.6,0.02,Rain,Rain,330,2012-11-13 07:57:00
3:07 AM,46.4,42.8,87,30.19,5.0,WNW,10.4,20.7,0.04,Rain,Light Rain,300,2012-11-13 08:07:00
3:52 AM,45.0,41.0,86,30.23,4.0,Variable,4.6,-,0.11,Rain,Light Rain,0,2012-11-13 08:52:00
4:28 AM,44.6,41.0,87,30.22,6.0,Variable,5.8,-,0.03,Rain,Light Rain,0,2012-11-13 09:28:00
4:52 AM,44.1,41.0,89,30.25,6.0,WSW,8.1,-,0.06,Rain,Light Rain,250,2012-11-13 09:52:00
5:00 AM,44.6,41.0,87,30.24,5.0,WSW,10.4,-,0.00,Rain,Light Rain,250,2012-11-13 10:00:00
5:22 AM,42.8,41.0,93,30.25,3.0,West,6.9,-,0.02,Rain,Light Rain,270,2012-11-13 10:22:00
5:52 AM,42.1,39.9,92,30.25,3.0,WNW,5.8,-,0.05,Rain,Light Rain,290,2012-11-13 10:52:00
6:07 AM,42.8,39.2,87,30.23,7.0,WSW,6.9,-,0.01,Rain,Light Rain,250,2012-11-13 11:07:00
6:48 AM,42.8,39.2,87,30.26,10.0,WSW,10.4,-,0.03,Rain,Light Rain,250,2012-11-13 11:48:00
6:52 AM,42.1,37.9,85,30.28,10.0,WSW,9.2,-,0.03,,Overcast,250,2012-11-13 11:52:00
7:50 AM,39.2,37.4,93,30.26,7.0,West,6.9,-,0.01,Rain,Light Rain,270,2012-11-13 12:50:00
7:52 AM,39.9,36.0,86,30.27,6.0,West,6.9,-,0.01,Rain,Light Rain,280,2012-11-13 12:52:00
8:17 AM,39.2,35.6,87,30.29,7.0,West,9.2,-,0.01,Rain,Light Rain,280,2012-11-13 13:17:00
8:44 AM,37.4,35.6,93,30.32,5.0,West,10.4,-,0.04,Rain,Light Rain,280,2012-11-13 13:44:00
8:52 AM,37.0,34.0,89,30.33,2.5,West,10.4,-,0.06,Rain,Rain,270,2012-11-13 13:52:00
9:03 AM,37.4,33.8,87,30.31,4.0,West,9.2,-,0.01,Rain,Light Rain,270,2012-11-13 14:03:00
9:14 AM,37.4,35.6,93,30.30,6.0,West,10.4,-,0.02,Rain,Light Rain,260,2012-11-13 14:14:00
9:52 AM,36.0,34.0,93,30.32,4.0,West,8.1,-,0.05,Rain,Light Rain,270,2012-11-13 14:52:00
9:59 AM,35.6,33.8,93,30.32,4.0,WSW,8.1,-,0.01,Rain,Light Rain,250,2012-11-13 14:59:00
10:15 AM,35.6,32.0,87,30.31,9.0,WSW,5.8,-,0.02,Rain,Light Rain,250,2012-11-13 15:15:00
10:23 AM,35.6,33.8,93,30.32,10.0,WSW,8.1,-,0.02,,Overcast,240,2012-11-13 15:23:00
10:52 AM,37.9,34.0,86,30.32,10.0,WNW,6.9,-,0.02,,Overcast,290,2012-11-13 15:52:00
11:39 AM,39.2,33.8,81,30.28,10.0,WNW,8.1,-,N/A,,Scattered Clouds,290,2012-11-13 16:39:00
11:52 AM,39.9,34.0,79,30.29,10.0,West,12.7,-,N/A,,Clear,260,2012-11-13 16:52:00
12:52 PM,41.0,30.9,67,30.30,10.0,West,6.9,23.0,N/A,,Mostly Cloudy,280,2012-11-13 17:52:00
1:01 PM,42.8,32.0,66,30.28,10.0,West,12.7,18.4,N/A,,Mostly Cloudy,270,2012-11-13 18:01:00
1:20 PM,42.8,30.2,61,30.27,10.0,West,11.5,-,N/A,,Mostly Cloudy,270,2012-11-13 18:20:00
1:52 PM,42.1,28.0,58,30.28,10.0,West,13.8,21.9,N/A,,Overcast,280,2012-11-13 18:52:00
2:52 PM,42.1,28.0,58,30.31,10.0,West,8.1,-,N/A,,Overcast,280,2012-11-13 19:52:00
3:52 PM,41.0,27.0,57,30.33,10.0,Variable,6.9,-,N/A,,Overcast,0,2012-11-13 20:52:00
4:52 PM,39.9,26.1,58,30.35,10.0,West,5.8,-,N/A,,Overcast,270,2012-11-13 21:52:00
5:52 PM,39.9,27.0,60,30.39,10.0,West,8.1,-,N/A,,Overcast,280,2012-11-13 22:52:00
6:52 PM,39.0,23.0,53,30.41,10.0,Variable,4.6,16.1,N/A,,Overcast,0,2012-11-13 23:52:00
7:52 PM,37.9,24.1,57,30.43,10.0,West,3.5,-,N/A,,Overcast,270,2012-11-14 00:52:00
8:52 PM,37.9,24.1,57,30.45,10.0,Calm,Calm,-,N/A,,Overcast,0,2012-11-14 01:52:00
9:52 PM,37.0,24.1,59,30.47,10.0,West,3.5,-,N/A,,Overcast,260,2012-11-14 02:52:00
10:52 PM,37.0,24.1,59,30.47,10.0,NNW,3.5,-,N/A,,Overcast,330,2012-11-14 03:52:00
11:52 PM,34.0,24.1,67,30.47,10.0,Calm,Calm,-,N/A,,Clear,0,2012-11-14 04:52:00